Tracking 30922 objects as of 2-Jul-2025
HD Live streaming from Space Station
objects crossing your sky now

CZ-3C R/B

Track CZ-3C R/B now!
10-day predictions


NORAD ID: 41870
Int'l Code: 2016-072B
Perigee: 512.8 km
Apogee: 14,995.7 km
Inclination: 16.8 °
Period: 278.5 minutes
Semi major axis: 14125 km
RCS: Unknown
Launch date: November 22, 2016
Source: People's Republic of China (PRC)
Launch site: Xichang Space Center, China (XSC)

Note: This is a ROCKET BODY
Your satellite tracking list
Your tracking list is empty




NASA's NSSDC Master Catalog

Two Line Element Set (TLE):
1 41870U 16072B   25182.61290494  .00000239  00000-0  40846-3 0  9998
2 41870  16.8048 162.8641 5126597  35.0967 349.8514  5.17140441142178
Source of the keplerian elements: AFSPC